Weather History for KTOI - August, 2014

Change the Weather History Date:

Saturday, August 30, 2014

  Actual Average Record
Temperature  
Mean Temperature 85 °F 79 °F  
Max Temperature 96 °F 90 °F 100 °F (2011)
Min Temperature 73 °F 68 °F 59 °F (2011)
Cooling Degree Days 20 14  
Month to date cooling degree days 479 463  
Year to date cooling degree days 1694 1623  
Since 1 June cooling degree days 1372 1336  
Growing Degree Days 34 (Base 50)    
Moisture  
Dew Point 73 °F    
Average Humidity 68    
Maximum Humidity 94    
Minimum Humidity 42    
Precipitation  
Precipitation 0.16 in 0.10 in 2.31 in (2006)
Month to date precipitation 3.03 4.52  
Year to date precipitation 38.00 37.85  
Sea Level Pressure  
Sea Level Pressure 30.09 in    
Wind  
Wind Speed 3 mph (SSE)    
Max Wind Speed 17 mph    
Max Gust Speed 25 mph    
Visibility 9 miles    
Events Rain , Thunderstorm    
T = Trace of Precipitation, MM = Missing Value Source: NWS Daily Summary

Daily Weather History Graph

Daily Weather History Graph

Search for Another Location

Airport or City:

Trip Planner

Search our weather history database for the weather conditions in past years. The results will help you decide how hot, cold, wet, or windy it might be!

Date:

Astronomy

Aug. 30, 2014 Rise Set
Actual Time 6:18 AM CDT 7:10 PM CDT
Civil Twilight 5:53 AM CDT 7:35 PM CDT
Nautical Twilight 5:23 AM CDT 8:04 PM CDT
Astronomical Twilight 4:53 AM CDT 8:34 PM CDT
Moon 10:46 AM CDT 10:04 PM CDT
Length of Visible Light 13h 42m
Length of Day
12h 52m
Waxing Crescent, 23% of the Moon is Illuminated
Aug 30
Waxing Crescent
Sep 2
First Quarter
Sep 8
Full
Sep 15
Last Quarter
Sep 24
New

Hourly Weather History & Observations

Time (CDT) Temp. Heat Index Dew Point Humidity Pressure Visibility Wind Dir Wind Speed Gust Speed Precip Events Conditions
12:53 AM 75.9 °F - 73.0 °F 91% 30.07 in 10.0 mi South 3.5 mph - N/A   Clear
1:53 AM 75.9 °F - 73.0 °F 91% 30.06 in 10.0 mi SSE 3.5 mph - N/A   Clear
2:53 AM 75.9 °F - 73.0 °F 91% 30.07 in 10.0 mi Calm Calm - N/A   Clear
3:53 AM 75.9 °F - 73.0 °F 91% 30.06 in 10.0 mi Calm Calm - N/A   Clear
4:53 AM 73.0 °F - 72.0 °F 96% 30.07 in 7.0 mi Calm Calm - N/A   Clear
5:53 AM 75.0 °F - 72.0 °F 90% 30.08 in 10.0 mi Calm Calm - N/A   Clear
6:53 AM 75.0 °F - 73.0 °F 94% 30.09 in 8.0 mi Calm Calm - N/A   Clear
7:14 AM 77.0 °F - 73.9 °F 90% 30.11 in 10.0 mi Calm Calm - N/A   Scattered Clouds
7:25 AM 75.9 °F - 73.9 °F 94% 30.12 in 10.0 mi ESE 3.5 mph - N/A   Mostly Cloudy
7:53 AM 78.1 °F - 73.9 °F 87% 30.10 in 10.0 mi ESE 5.8 mph - N/A   Overcast
8:53 AM 82.0 °F 88.6 °F 75.0 °F 79% 30.11 in 10.0 mi SSW 5.8 mph - N/A   Mostly Cloudy
9:05 AM 82.0 °F 88.6 °F 75.0 °F 79% 30.13 in 10.0 mi South 3.5 mph - N/A   Scattered Clouds
9:53 AM 84.9 °F 91.4 °F 73.0 °F 67% 30.12 in 10.0 mi Variable 6.9 mph - N/A   Clear
10:53 AM 89.1 °F 97.0 °F 73.0 °F 59% 30.11 in 10.0 mi SSE 10.4 mph - N/A   Mostly Cloudy
11:08 AM 88.0 °F 94.7 °F 72.0 °F 59% 30.13 in 10.0 mi West 3.5 mph - N/A   Mostly Cloudy
11:53 AM 91.0 °F 98.2 °F 72.0 °F 53% 30.10 in 10.0 mi SSW 9.2 mph - N/A   Partly Cloudy
12:53 PM 91.0 °F 97.6 °F 71.1 °F 52% 30.08 in 10.0 mi SSW 5.8 mph - N/A   Scattered Clouds
1:53 PM 93.0 °F 100.1 °F 71.1 °F 49% 30.05 in 10.0 mi ESE 8.1 mph - N/A   Scattered Clouds
2:53 PM 96.1 °F 102.9 °F 70.0 °F 43% 30.04 in 10.0 mi South 8.1 mph - N/A   Partly Cloudy
3:53 PM 80.1 °F 83.8 °F 72.0 °F 76% 30.07 in 9.0 mi SW 17.3 mph 25.3 mph 0.00 in Rain , Thunderstorm Light Rain
4:02 PM 78.1 °F - 72.0 °F 81% 30.08 in 2.5 mi South 17.3 mph 25.3 mph 0.06 in Rain , Thunderstorm Heavy Thunderstorms and Rain
4:05 PM 77.0 °F - 72.0 °F 84% 30.08 in 1.2 mi South 10.4 mph 21.9 mph 0.13 in Rain , Thunderstorm Heavy Thunderstorms and Rain
4:13 PM 77.0 °F - 72.0 °F 84% 30.05 in 2.0 mi NNE 4.6 mph - 0.16 in Rain Light Rain
4:21 PM 78.1 °F - 73.0 °F 84% 30.06 in 10.0 mi ENE 3.5 mph - 0.16 in Rain Light Rain
4:53 PM 79.0 °F - 73.9 °F 84% 30.06 in 10.0 mi Calm Calm - 0.16 in   Clear
5:53 PM 79.0 °F - 73.9 °F 84% 30.06 in 10.0 mi Calm Calm - N/A   Partly Cloudy
6:53 PM 79.0 °F - 75.9 °F 90% 30.07 in 10.0 mi Calm Calm - N/A   Partly Cloudy
7:53 PM 77.0 °F - 75.0 °F 94% 30.08 in 10.0 mi Calm Calm - N/A   Partly Cloudy
8:53 PM 78.1 °F - 73.9 °F 87% 30.10 in 10.0 mi Calm Calm - N/A   Clear
9:53 PM 77.0 °F - 73.0 °F 88% 30.12 in 10.0 mi Calm Calm - N/A   Clear
10:53 PM 73.9 °F - 72.0 °F 93% 30.12 in 8.0 mi Calm Calm - N/A   Clear
11:53 PM 75.0 °F - 72.0 °F 90% 30.11 in 10.0 mi Calm Calm - N/A   Clear